Weather History for KMUT - November, 2013

Change the Weather History Date:

Wednesday, November 20, 2013

  Actual Average Record
Temperature  
Mean Temperature 39 °F -  
Max Temperature 41 °F 46 °F 73 °F (2003)
Min Temperature 37 °F 29 °F 12 °F (1964)
Degree Days  
Heating Degree Days 26    
Moisture  
Dew Point 33 °F    
Average Humidity 82    
Maximum Humidity 93    
Minimum Humidity 65    
Precipitation  
Precipitation 0.47 in - - ()
Sea Level Pressure  
Sea Level Pressure 30.09 in    
Wind  
Wind Speed 10 mph (SE)    
Max Wind Speed 16 mph    
Max Gust Speed 24 mph    
Visibility 8 miles    
Events Rain    
Averages and records for this station are not official NWS values.
T = Trace of Precipitation, MM = Missing Value Source: NWS Daily Summary

Daily Weather History Graph

Daily Weather History Graph

Search for Another Location

Airport or City:

Trip Planner

Search our weather history database for the weather conditions in past years. The results will help you decide how hot, cold, wet, or windy it might be!

Date:

Astronomy

Nov. 20, 2013 Rise Set
Actual Time 6:59 AM CST 4:41 PM CST
Civil Twilight 6:29 AM CST 5:11 PM CST
Nautical Twilight 5:55 AM CST 5:44 PM CST
Astronomical Twilight 5:22 AM CST 6:17 PM CST
Moon 7:24 PM CST (11/20) 9:24 AM CST (11/20)
Length of Visible Light 10h 41m
Length of Day
9h 41m
Waning Gibbous, 91% of the Moon is Illuminated
Nov 20
Waning Gibbous
Nov 25
Last Quarter
Dec 2
New
Dec 9
First Quarter
Dec 17
Full

Hourly Weather History & Observations

Time (CST) Temp. Windchill Dew Point Humidity Pressure Visibility Wind Dir Wind Speed Gust Speed Precip Events Conditions
12:15 AM 37.4 °F 32.1 °F 28.4 °F 70% 30.18 in 10.0 mi SE 6.9 mph - N/A   Mostly Cloudy
12:35 AM 37.4 °F 31.4 °F 30.2 °F 75% 30.18 in 10.0 mi SSE 8.1 mph - N/A   Overcast
12:55 AM 37.4 °F 31.4 °F 28.4 °F 70% 30.18 in 10.0 mi SE 8.1 mph - N/A   Mostly Cloudy
1:15 AM 37.4 °F 31.4 °F 28.4 °F 70% 30.18 in 10.0 mi SE 8.1 mph - N/A   Mostly Cloudy
1:35 AM 37.4 °F 30.8 °F 28.4 °F 70% 30.18 in 10.0 mi SE 9.2 mph - N/A   Mostly Cloudy
1:55 AM 37.4 °F 32.1 °F 30.2 °F 75% 30.18 in 10.0 mi SE 6.9 mph - N/A   Overcast
2:15 AM 37.4 °F 30.8 °F 28.4 °F 70% 30.18 in 10.0 mi SE 9.2 mph - N/A   Mostly Cloudy
2:35 AM 37.4 °F 30.8 °F 30.2 °F 75% 30.17 in 10.0 mi SE 9.2 mph 16.1 mph N/A   Overcast
2:55 AM 37.4 °F 30.8 °F 30.2 °F 75% 30.16 in 10.0 mi SE 9.2 mph 16.1 mph N/A   Mostly Cloudy
3:15 AM 37.4 °F 30.3 °F 30.2 °F 75% 30.16 in 10.0 mi SE 10.4 mph - N/A   Partly Cloudy
3:35 AM 37.4 °F 30.8 °F 30.2 °F 75% 30.15 in 10.0 mi SE 9.2 mph 16.1 mph N/A   Scattered Clouds
3:55 AM 37.4 °F 30.8 °F 30.2 °F 75% 30.15 in 10.0 mi SE 9.2 mph - N/A   Overcast
4:15 AM 37.4 °F 30.8 °F 30.2 °F 75% 30.14 in 10.0 mi SE 9.2 mph - N/A   Overcast
4:35 AM 37.4 °F 29.8 °F 30.2 °F 75% 30.13 in 10.0 mi SE 11.5 mph - N/A   Overcast
4:55 AM 37.4 °F 29.8 °F 30.2 °F 75% 30.12 in 10.0 mi SE 11.5 mph - N/A   Overcast
5:15 AM 37.4 °F 28.9 °F 30.2 °F 75% 30.11 in 10.0 mi SE 13.8 mph 21.9 mph N/A   Mostly Cloudy
5:35 AM 37.4 °F 29.8 °F 30.2 °F 75% 30.11 in 10.0 mi SE 11.5 mph 20.7 mph N/A   Mostly Cloudy
5:55 AM 37.4 °F 28.2 °F 30.2 °F 75% 30.11 in 10.0 mi SSE 16.1 mph 24.2 mph N/A   Overcast
6:15 AM 37.4 °F 28.9 °F 28.4 °F 70% 30.11 in 10.0 mi SSE 13.8 mph 20.7 mph N/A   Overcast
6:35 AM 37.4 °F 28.2 °F 28.4 °F 70% 30.12 in 10.0 mi SE 16.1 mph 24.2 mph N/A   Overcast
6:55 AM 37.4 °F 30.3 °F 28.4 °F 70% 30.13 in 10.0 mi SSE 10.4 mph 17.3 mph N/A   Overcast
7:15 AM 37.4 °F 29.8 °F 30.2 °F 75% 30.14 in 10.0 mi SSE 11.5 mph - N/A   Overcast
7:35 AM 37.4 °F 29.8 °F 30.2 °F 75% 30.15 in 10.0 mi SSE 11.5 mph - N/A   Overcast
7:55 AM 37.4 °F 30.3 °F 30.2 °F 75% 30.15 in 10.0 mi SSE 10.4 mph 19.6 mph N/A   Overcast
8:15 AM 37.4 °F 28.9 °F 30.2 °F 75% 30.15 in 10.0 mi SE 13.8 mph 20.7 mph N/A   Overcast
8:35 AM 37.4 °F 29.3 °F 30.2 °F 75% 30.15 in - SSE 12.7 mph 19.6 mph N/A   Mostly Cloudy
8:55 AM 37.4 °F 29.3 °F 30.2 °F 75% 30.15 in 10.0 mi SSE 12.7 mph 19.6 mph N/A   Overcast
9:15 AM 39.2 °F 30.8 °F 30.2 °F 70% 30.14 in 10.0 mi SSE 15.0 mph - N/A   Overcast
9:35 AM 39.2 °F 33.0 °F 30.2 °F 70% 30.15 in 10.0 mi SSE 9.2 mph 15.0 mph N/A   Overcast
9:55 AM 39.2 °F 32.5 °F 30.2 °F 70% 30.14 in 10.0 mi SSE 10.4 mph - N/A   Overcast
10:15 AM 39.2 °F 32.5 °F 30.2 °F 70% 30.12 in 10.0 mi SE 10.4 mph 17.3 mph N/A   Overcast
10:35 AM 39.2 °F 32.0 °F 30.2 °F 70% 30.12 in 10.0 mi SE 11.5 mph 20.7 mph N/A   Overcast
10:55 AM 39.2 °F 31.2 °F 30.2 °F 70% 30.10 in 10.0 mi SE 13.8 mph - N/A   Overcast
11:15 AM 39.2 °F 32.0 °F 30.2 °F 70% 30.10 in 10.0 mi SSE 11.5 mph 18.4 mph N/A   Overcast
11:35 AM 41.0 °F 33.9 °F 30.2 °F 65% 30.08 in 10.0 mi SSE 12.7 mph 21.9 mph N/A   Mostly Cloudy
11:55 AM 39.2 °F 31.2 °F 32.0 °F 75% 30.07 in 6.0 mi SE 13.8 mph - N/A Rain Light Rain
12:15 PM 39.2 °F 33.6 °F 33.8 °F 81% 30.07 in 6.0 mi SSE 8.1 mph 19.6 mph N/A Rain Light Rain
12:35 PM 39.2 °F 33.0 °F 33.8 °F 81% 30.06 in 5.0 mi SSE 9.2 mph - N/A Rain Light Rain
12:55 PM 39.2 °F 32.5 °F 33.8 °F 81% 30.06 in 3.0 mi SSE 10.4 mph - 0.03 in Rain Light Rain
1:15 PM 37.4 °F 30.8 °F 35.6 °F 93% 30.05 in 3.0 mi SE 9.2 mph - N/A Rain Light Rain
1:35 PM 37.4 °F 30.3 °F 35.6 °F 93% 30.05 in 3.0 mi SE 10.4 mph - N/A   Overcast
1:55 PM 37.4 °F 32.1 °F 35.6 °F 93% 30.05 in 3.0 mi SSE 6.9 mph - 0.09 in   Overcast
2:15 PM 37.4 °F 29.3 °F 35.6 °F 93% 30.02 in 3.0 mi SE 12.7 mph - N/A Rain Light Rain
2:35 PM 37.4 °F 32.1 °F 35.6 °F 93% 30.02 in 2.0 mi SE 6.9 mph 15.0 mph N/A   Overcast
2:55 PM 37.4 °F 28.9 °F 35.6 °F 93% 30.02 in 2.5 mi SE 13.8 mph - 0.10 in   Overcast
3:15 PM 37.4 °F 32.1 °F 35.6 °F 93% 30.02 in 2.5 mi SE 6.9 mph - N/A Rain Light Rain
3:35 PM 37.4 °F 32.1 °F 35.6 °F 93% 30.04 in 2.0 mi SE 6.9 mph - N/A Rain Light Rain
3:55 PM 37.4 °F 31.4 °F 35.6 °F 93% 30.04 in 2.0 mi SSE 8.1 mph 15.0 mph 0.07 in   Overcast
4:15 PM 37.4 °F 29.3 °F 35.6 °F 93% 30.02 in 2.0 mi SE 12.7 mph - N/A   Overcast
4:35 PM 37.4 °F 30.8 °F 35.6 °F 93% 30.02 in 2.5 mi SE 9.2 mph 16.1 mph N/A   Overcast
4:55 PM 37.4 °F 29.3 °F 35.6 °F 93% 30.00 in 3.0 mi SE 12.7 mph 18.4 mph 0.17 in   Overcast
5:15 PM 37.4 °F 29.8 °F 35.6 °F 93% 30.02 in 7.0 mi SSE 11.5 mph - N/A   Overcast
5:35 PM 37.4 °F 29.3 °F 35.6 °F 93% 30.00 in 5.0 mi ESE 12.7 mph 18.4 mph N/A Rain Light Rain
5:55 PM 39.2 °F 32.0 °F 35.6 °F 87% 30.03 in 9.0 mi SSE 11.5 mph - 0.01 in   Overcast
6:15 PM 39.2 °F 32.0 °F 37.4 °F 93% 30.03 in - SE 11.5 mph 19.6 mph N/A   Unknown
6:35 PM 39.2 °F 33.0 °F 37.4 °F 93% 30.04 in 8.0 mi SE 9.2 mph 16.1 mph N/A   Overcast
6:55 PM 39.2 °F 32.5 °F 37.4 °F 93% 30.05 in 9.0 mi SSE 10.4 mph 17.3 mph N/A   Overcast
7:15 PM 39.2 °F 31.2 °F 37.4 °F 93% 30.06 in 10.0 mi SSE 13.8 mph - N/A   Overcast
7:35 PM 39.2 °F 32.0 °F 37.4 °F 93% 30.06 in 9.0 mi SSE 11.5 mph - N/A   Overcast
7:55 PM 39.2 °F 32.5 °F 37.4 °F 93% 30.06 in 7.0 mi SE 10.4 mph - N/A   Overcast
8:15 PM 39.2 °F 33.6 °F 37.4 °F 93% 30.06 in 7.0 mi SSE 8.1 mph - N/A   Overcast
8:35 PM 39.2 °F 35.0 °F 37.4 °F 93% 30.06 in 8.0 mi SSE 5.8 mph - N/A   Overcast
8:55 PM 39.2 °F 33.0 °F 37.4 °F 93% 30.06 in 8.0 mi SE 9.2 mph - N/A   Overcast
9:15 PM 39.2 °F 34.2 °F 37.4 °F 93% 30.06 in 9.0 mi SSE 6.9 mph - N/A   Overcast
9:35 PM 39.2 °F 33.6 °F 37.4 °F 93% 30.06 in 9.0 mi SE 8.1 mph - N/A   Overcast
9:55 PM 41.0 °F 35.8 °F 37.4 °F 87% 30.06 in 9.0 mi SE 8.1 mph - N/A   Overcast
10:15 PM 41.0 °F 36.4 °F 37.4 °F 87% 30.06 in 9.0 mi SE 6.9 mph - N/A   Overcast
10:35 PM 39.2 °F 35.0 °F 37.4 °F 93% 30.05 in 8.0 mi ESE 5.8 mph - N/A   Overcast
10:55 PM 39.2 °F 35.0 °F 37.4 °F 93% 30.06 in 7.0 mi SE 5.8 mph - N/A   Overcast
11:15 PM 41.0 °F 38.0 °F 37.4 °F 87% 30.06 in 7.0 mi SE 4.6 mph - N/A   Overcast
11:35 PM 41.0 °F 38.0 °F 37.4 °F 87% 30.06 in 7.0 mi SE 4.6 mph - N/A   Overcast
11:55 PM 41.0 °F 39.0 °F 37.4 °F 87% 30.06 in 8.0 mi ESE 3.5 mph - N/A   Overcast